Time,TemperatureF,DewpointF,PressureIn,WindDirection,WindDirectionDegrees,WindSpeedMPH,WindSpeedGustMPH,Humidity,HourlyPrecipIn,Conditions,Clouds,dailyrainin,SoftwareType,DateUTC
2013-06-11 00:03:00,70.9,53.4,29.83,North,9,0.0,0.0,54,0.00,CLR,,0.00,WeatherDisplay:10.37,2013-06-11 07:03:00,
2013-06-11 00:08:00,70.6,54.1,29.83,North,9,0.0,0.0,56,0.00,CLR,,0.00,WeatherDisplay:10.37,2013-06-11 07:08:00,
2013-06-11 00:13:00,70.3,53.9,29.82,North,9,0.0,0.0,56,0.00,CLR,,0.00,WeatherDisplay:10.37,2013-06-11 07:13:00,
2013-06-11 00:18:00,70.1,53.7,29.82,North,6,1.2,1.2,56,0.00,CLR,,0.00,WeatherDisplay:10.37,2013-06-11 07:18:00,
2013-06-11 00:23:00,70.1,54.2,29.82,NNW,347,0.0,0.0,57,0.00,CLR,,0.00,WeatherDisplay:10.37,2013-06-11 07:23:00,
2013-06-11 00:28:00,70.0,54.1,29.83,NNW,347,0.0,0.0,57,0.00,CLR,,0.00,WeatherDisplay:10.37,2013-06-11 07:28:00,
2013-06-11 00:33:00,69.8,54.4,29.83,NNW,347,0.0,0.0,58,0.00,CLR,,0.00,WeatherDisplay:10.37,2013-06-11 07:33:00,
2013-06-11 00:38:00,69.6,54.6,29.83,NNW,347,0.0,0.0,59,0.00,CLR,,0.00,WeatherDisplay:10.37,2013-06-11 07:38:00,
2013-06-11 00:43:00,69.4,54.4,29.83,NNW,345,1.2,0.0,59,0.00,CLR,,0.00,WeatherDisplay:10.37,2013-06-11 07:43:00,
2013-06-11 00:48:00,69.2,54.3,29.83,NNW,346,0.0,0.0,59,0.00,CLR,,0.00,WeatherDisplay:10.37,2013-06-11 07:48:00,
2013-06-11 00:53:00,69.1,55.1,29.83,NNW,345,0.0,0.0,61,0.00,CLR,,0.00,WeatherDisplay:10.37,2013-06-11 07:53:00,
2013-06-11 00:58:00,68.9,54.9,29.83,NNW,345,0.0,0.0,61,0.00,CLR,,0.00,WeatherDisplay:10.37,2013-06-11 07:58:00,
2013-06-11 01:03:00,68.6,54.6,29.83,NNW,346,0.0,0.0,61,0.00,CLR,,0.00,WeatherDisplay:10.37,2013-06-11 08:03:00,
2013-06-11 01:08:00,68.3,54.8,29.83,NNW,345,0.0,0.0,62,0.00,CLR,,0.00,WeatherDisplay:10.37,2013-06-11 08:08:00,
2013-06-11 01:13:00,67.9,54.4,29.83,NNW,345,0.0,0.0,62,0.00,CLR,,0.00,WeatherDisplay:10.37,2013-06-11 08:13:00,
2013-06-11 01:18:00,67.7,55.1,29.83,NNW,345,0.0,0.0,64,0.00,CLR,,0.00,WeatherDisplay:10.37,2013-06-11 08:18:00,
2013-06-11 01:23:00,67.4,54.8,29.83,NNW,345,0.0,0.0,64,0.00,CLR,,0.00,WeatherDisplay:10.37,2013-06-11 08:23:00,
2013-06-11 01:28:00,67.1,54.9,29.83,NNW,345,0.0,0.0,65,0.00,CLR,,0.00,WeatherDisplay:10.37,2013-06-11 08:28:00,
2013-06-11 01:33:00,66.9,55.2,29.83,NNW,345,0.0,0.0,66,0.00,CLR,,0.00,WeatherDisplay:10.37,2013-06-11 08:33:00,
2013-06-11 01:38:00,66.7,54.6,29.83,NNW,345,0.0,0.0,65,0.00,CLR,,0.00,WeatherDisplay:10.37,2013-06-11 08:38:00,
2013-06-11 01:43:00,66.4,55.1,29.83,NNW,346,0.0,0.0,67,0.00,CLR,,0.00,WeatherDisplay:10.37,2013-06-11 08:43:00,
2013-06-11 01:48:00,66.1,54.8,29.83,NNW,345,0.0,0.0,67,0.00,CLR,,0.00,WeatherDisplay:10.37,2013-06-11 08:48:00,
2013-06-11 01:53:00,65.8,54.5,29.83,NNW,345,0.0,0.0,67,0.00,CLR,,0.00,WeatherDisplay:10.37,2013-06-11 08:53:00,
2013-06-11 01:58:00,65.5,55.1,29.83,NNW,346,0.0,0.0,69,0.00,CLR,,0.00,WeatherDisplay:10.37,2013-06-11 08:58:00,
2013-06-11 02:03:00,65.3,54.9,29.83,NNW,345,0.0,0.0,69,0.00,CLR,,0.00,WeatherDisplay:10.37,2013-06-11 09:03:00,
2013-06-11 02:08:00,65.1,54.7,29.83,NNW,345,0.0,0.0,69,0.00,CLR,,0.00,WeatherDisplay:10.37,2013-06-11 09:08:00,
2013-06-11 02:13:00,64.9,54.5,29.83,NNW,346,0.0,0.0,69,0.00,CLR,,0.00,WeatherDisplay:10.37,2013-06-11 09:13:00,
2013-06-11 02:18:00,64.8,54.4,29.83,NNW,345,0.0,0.0,69,0.00,CLR,,0.00,WeatherDisplay:10.37,2013-06-11 09:18:00,
2013-06-11 02:23:00,64.6,55.0,29.83,NNW,346,0.0,0.0,71,0.00,CLR,,0.00,WeatherDisplay:10.37,2013-06-11 09:23:00,
2013-06-11 02:28:00,64.5,54.5,29.83,NNW,346,0.0,0.0,70,0.00,CLR,,0.00,WeatherDisplay:10.37,2013-06-11 09:28:00,
2013-06-11 02:33:00,64.4,54.4,29.83,NNW,345,0.0,0.0,70,0.00,CLR,,0.00,WeatherDisplay:10.37,2013-06-11 09:33:00,
2013-06-11 02:38:00,64.3,54.7,29.83,NNW,345,0.0,0.0,71,0.00,CLR,,0.00,WeatherDisplay:10.37,2013-06-11 09:38:00,
2013-06-11 02:43:00,64.1,54.9,29.83,NNW,345,0.0,0.0,72,0.00,CLR,,0.00,WeatherDisplay:10.37,2013-06-11 09:43:00,
2013-06-11 02:48:00,63.9,54.7,29.83,NNW,345,0.0,0.0,72,0.00,CLR,,0.00,WeatherDisplay:10.37,2013-06-11 09:48:00,
2013-06-11 02:53:00,63.7,54.5,29.83,NNW,345,0.0,0.0,72,0.00,CLR,,0.00,WeatherDisplay:10.37,2013-06-11 09:53:00,
2013-06-11 02:58:00,63.5,54.3,29.83,NNW,346,0.0,0.0,72,0.00,CLR,,0.00,WeatherDisplay:10.37,2013-06-11 09:58:00,
2013-06-11 03:03:00,63.4,54.2,29.83,NNW,345,0.0,0.0,72,0.00,CLR,,0.00,WeatherDisplay:10.37,2013-06-11 10:03:00,
2013-06-11 03:08:00,63.3,54.5,29.83,NNW,345,0.0,0.0,73,0.00,CLR,,0.00,WeatherDisplay:10.37,2013-06-11 10:08:00,
2013-06-11 03:13:00,63.2,54.4,29.83,NNW,346,0.0,0.0,73,0.00,CLR,,0.00,WeatherDisplay:10.37,2013-06-11 10:13:00,
2013-06-11 03:18:00,63.1,54.3,29.83,NNW,346,0.0,0.0,73,0.00,CLR,,0.00,WeatherDisplay:10.37,2013-06-11 10:18:00,
2013-06-11 03:23:00,63.0,54.6,29.83,NNW,345,0.0,0.0,74,0.00,CLR,,0.00,WeatherDisplay:10.37,2013-06-11 10:23:00,
2013-06-11 03:28:00,62.9,54.5,29.83,NNW,345,0.0,0.0,74,0.00,CLR,,0.00,WeatherDisplay:10.37,2013-06-11 10:28:00,
2013-06-11 03:33:00,62.8,54.0,29.83,NNW,345,0.0,0.0,73,0.00,CLR,,0.00,WeatherDisplay:10.37,2013-06-11 10:33:00,
2013-06-11 03:38:00,63.0,53.8,29.84,NNW,345,0.0,0.0,72,0.00,CLR,,0.00,WeatherDisplay:10.37,2013-06-11 10:38:00,
2013-06-11 03:43:00,63.2,53.6,29.84,NNW,345,0.0,0.0,71,0.00,CLR,,0.00,WeatherDisplay:10.37,2013-06-11 10:43:00,
2013-06-11 03:48:00,63.3,53.7,29.84,NNW,345,0.0,0.0,71,0.00,CLR,,0.00,WeatherDisplay:10.37,2013-06-11 10:48:00,
2013-06-11 03:53:00,63.4,53.4,29.84,NNW,345,0.0,0.0,70,0.00,CLR,,0.00,WeatherDisplay:10.37,2013-06-11 10:53:00,
2013-06-11 03:58:00,63.4,53.8,29.84,NNW,345,0.0,0.0,71,0.00,CLR,,0.00,WeatherDisplay:10.37,2013-06-11 10:58:00,
2013-06-11 04:03:00,63.4,53.8,29.85,NNW,345,0.0,0.0,71,0.00,CLR,,0.00,WeatherDisplay:10.37,2013-06-11 11:03:00,
2013-06-11 04:08:00,63.4,53.4,29.85,NNW,345,0.0,0.0,70,0.00,CLR,,0.00,WeatherDisplay:10.37,2013-06-11 11:08:00,
2013-06-11 04:13:00,63.4,53.8,29.85,NNW,345,0.0,0.0,71,0.00,CLR,,0.00,WeatherDisplay:10.37,2013-06-11 11:13:00,
2013-06-11 04:18:00,63.3,53.7,29.85,NNW,346,0.0,0.0,71,0.00,CLR,,0.00,WeatherDisplay:10.37,2013-06-11 11:18:00,
2013-06-11 04:23:00,63.1,53.5,29.85,NNW,346,0.0,0.0,71,0.00,CLR,,0.00,WeatherDisplay:10.37,2013-06-11 11:23:00,
2013-06-11 04:28:00,62.8,53.6,29.86,NNW,345,0.0,0.0,72,0.00,CLR,,0.00,WeatherDisplay:10.37,2013-06-11 11:28:00,
2013-06-11 04:33:00,62.6,53.4,29.86,NNW,345,0.0,0.0,72,0.00,CLR,,0.00,WeatherDisplay:10.37,2013-06-11 11:33:00,
2013-06-11 04:38:00,62.4,53.6,29.86,NNW,345,0.0,0.0,73,0.00,CLR,,0.00,WeatherDisplay:10.37,2013-06-11 11:38:00,
2013-06-11 04:43:00,62.3,53.5,29.86,NNW,345,0.0,0.0,73,0.00,CLR,,0.00,WeatherDisplay:10.37,2013-06-11 11:43:00,
2013-06-11 04:48:00,62.2,53.4,29.86,NNW,345,0.0,0.0,73,0.00,CLR,,0.00,WeatherDisplay:10.37,2013-06-11 11:48:00,
2013-06-11 04:53:00,62.1,53.0,29.86,NNW,345,0.0,0.0,72,0.00,CLR,,0.00,WeatherDisplay:10.37,2013-06-11 11:53:00,
2013-06-11 04:58:00,62.0,53.2,29.86,NNW,345,0.0,0.0,73,0.00,CLR,,0.00,WeatherDisplay:10.37,2013-06-11 11:58:00,
2013-06-11 05:03:00,62.0,53.2,29.85,NNW,345,0.0,0.0,73,0.00,CLR,,0.00,WeatherDisplay:10.37,2013-06-11 12:03:00,
2013-06-11 05:08:00,62.0,53.2,29.85,NNW,345,0.0,0.0,73,0.00,CLR,,0.00,WeatherDisplay:10.37,2013-06-11 12:08:00,
2013-06-11 05:13:00,62.0,53.2,29.86,NNW,346,0.0,0.0,73,0.00,CLR,,0.00,WeatherDisplay:10.37,2013-06-11 12:13:00,
2013-06-11 05:18:00,62.0,53.2,29.86,NNW,346,0.0,0.0,73,0.00,CLR,,0.00,WeatherDisplay:10.37,2013-06-11 12:18:00,
2013-06-11 05:23:00,62.0,53.2,29.86,NNW,345,0.0,0.0,73,0.00,CLR,,0.00,WeatherDisplay:10.37,2013-06-11 12:23:00,
2013-06-11 05:28:00,62.0,53.2,29.86,NNW,345,0.0,0.0,73,0.00,CLR,,0.00,WeatherDisplay:10.37,2013-06-11 12:28:00,
2013-06-11 05:33:00,62.0,53.2,29.86,NNW,345,0.0,0.0,73,0.00,CLR,,0.00,WeatherDisplay:10.37,2013-06-11 12:33:00,
2013-06-11 05:38:00,62.0,54.0,29.86,NNW,345,0.0,0.0,75,0.00,CLR,,0.00,WeatherDisplay:10.37,2013-06-11 12:38:00,
2013-06-11 05:43:00,62.0,53.6,29.86,NNW,345,0.0,0.0,74,0.00,CLR,,0.00,WeatherDisplay:10.37,2013-06-11 12:43:00,
2013-06-11 05:48:00,62.0,53.6,29.86,NNW,346,0.0,0.0,74,0.00,CLR,,0.00,WeatherDisplay:10.37,2013-06-11 12:48:00,
2013-06-11 05:53:00,62.0,54.0,29.86,NNW,346,0.0,0.0,75,0.00,CLR,,0.00,WeatherDisplay:10.37,2013-06-11 12:53:00,
2013-06-11 05:58:00,61.9,53.9,29.86,NNW,346,0.0,0.0,75,0.00,CLR,,0.00,WeatherDisplay:10.37,2013-06-11 12:58:00,
2013-06-11 06:03:00,61.9,53.9,29.86,NNW,345,0.0,0.0,75,0.00,CLR,,0.00,WeatherDisplay:10.37,2013-06-11 13:03:00,
2013-06-11 06:08:00,61.9,53.9,29.86,NNW,346,0.0,0.0,75,0.00,CLR,,0.00,WeatherDisplay:10.37,2013-06-11 13:08:00,
2013-06-11 06:13:00,61.8,53.8,29.86,NNW,345,0.0,0.0,75,0.00,CLR,,0.00,WeatherDisplay:10.37,2013-06-11 13:13:00,
2013-06-11 06:18:00,61.8,53.8,29.86,NNW,345,0.0,0.0,75,0.00,CLR,,0.00,WeatherDisplay:10.37,2013-06-11 13:18:00,
2013-06-11 06:23:00,61.8,54.2,29.87,NNW,345,0.0,0.0,76,0.00,CLR,,0.00,WeatherDisplay:10.37,2013-06-11 13:23:00,
2013-06-11 06:28:00,61.9,53.9,29.86,NNW,346,0.0,0.0,75,0.00,CLR,,0.00,WeatherDisplay:10.37,2013-06-11 13:28:00,
2013-06-11 06:33:00,62.0,53.6,29.87,NNW,345,0.0,0.0,74,0.00,CLR,,0.00,WeatherDisplay:10.37,2013-06-11 13:33:00,
2013-06-11 06:38:00,62.2,53.8,29.87,NNW,346,0.0,0.0,74,0.00,CLR,,0.00,WeatherDisplay:10.37,2013-06-11 13:38:00,
2013-06-11 06:43:00,62.4,53.3,29.87,NNW,345,0.0,0.0,72,0.00,CLR,,0.00,WeatherDisplay:10.37,2013-06-11 13:43:00,
2013-06-11 06:48:00,62.8,54.0,29.86,NNW,346,0.0,0.0,73,0.00,CLR,,0.00,WeatherDisplay:10.37,2013-06-11 13:48:00,
2013-06-11 06:53:00,63.0,54.2,29.87,NNW,345,0.0,0.0,73,0.00,CLR,,0.00,WeatherDisplay:10.37,2013-06-11 13:53:00,
2013-06-11 06:58:00,63.3,54.9,29.87,NNW,345,0.0,0.0,74,0.00,CLR,,0.00,WeatherDisplay:10.37,2013-06-11 13:58:00,
2013-06-11 07:03:00,63.6,55.2,29.87,NNW,346,0.0,0.0,74,0.00,CLR,,0.00,WeatherDisplay:10.37,2013-06-11 14:03:00,
2013-06-11 07:08:00,64.0,56.3,29.87,NNW,345,0.0,0.0,76,0.00,CLR,,0.00,WeatherDisplay:10.37,2013-06-11 14:08:00,
2013-06-11 07:13:00,64.6,56.1,29.87,NNW,345,0.0,0.0,74,0.00,CLR,,0.00,WeatherDisplay:10.37,2013-06-11 14:13:00,
2013-06-11 07:18:00,65.6,56.7,29.87,NNW,345,0.0,0.0,73,0.00,CLR,,0.00,WeatherDisplay:10.37,2013-06-11 14:18:00,
2013-06-11 07:23:00,66.2,57.3,29.87,NNW,345,0.0,0.0,73,0.00,CLR,,0.00,WeatherDisplay:10.37,2013-06-11 14:23:00,
2013-06-11 07:28:00,66.6,57.7,29.87,NNW,346,0.0,0.0,73,0.00,CLR,,0.00,WeatherDisplay:10.37,2013-06-11 14:28:00,
2013-06-11 07:33:00,66.9,57.2,29.88,NNW,345,0.0,0.0,71,0.00,CLR,,0.00,WeatherDisplay:10.37,2013-06-11 14:33:00,
2013-06-11 07:38:00,67.2,56.7,29.88,West,277,1.2,0.0,69,0.00,CLR,,0.00,WeatherDisplay:10.37,2013-06-11 14:38:00,
2013-06-11 07:43:00,67.6,57.1,29.88,West,277,0.0,0.0,69,0.00,CLR,,0.00,WeatherDisplay:10.37,2013-06-11 14:43:00,
2013-06-11 07:48:00,68.0,56.6,29.88,West,277,0.0,0.0,67,0.00,CLR,,0.00,WeatherDisplay:10.37,2013-06-11 14:48:00,
2013-06-11 07:53:00,68.5,56.3,29.88,WSW,243,0.0,0.0,65,0.00,CLR,,0.00,WeatherDisplay:10.37,2013-06-11 14:53:00,
2013-06-11 07:58:00,68.8,56.1,29.88,WSW,243,0.0,0.0,64,0.00,CLR,,0.00,WeatherDisplay:10.37,2013-06-11 14:58:00,
2013-06-11 08:03:00,69.2,56.5,29.89,SW,216,1.2,1.2,64,0.00,CLR,,0.00,WeatherDisplay:10.37,2013-06-11 15:03:00,
2013-06-11 08:08:00,69.4,57.1,29.89,WSW,246,0.0,0.0,65,0.00,CLR,,0.00,WeatherDisplay:10.37,2013-06-11 15:08:00,
2013-06-11 08:13:00,69.7,57.4,29.89,SW,226,1.2,1.2,65,0.00,CLR,,0.00,WeatherDisplay:10.37,2013-06-11 15:13:00,
2013-06-11 08:18:00,69.7,57.4,29.89,West,266,1.2,0.0,65,0.00,CLR,,0.00,WeatherDisplay:10.37,2013-06-11 15:18:00,
2013-06-11 08:23:00,69.8,57.5,29.89,NW,325,1.2,1.2,65,0.00,CLR,,0.00,WeatherDisplay:10.37,2013-06-11 15:23:00,
2013-06-11 08:28:00,69.8,57.1,29.90,SW,226,1.2,1.2,64,0.00,CLR,,0.00,WeatherDisplay:10.37,2013-06-11 15:28:00,
2013-06-11 08:33:00,69.7,57.4,29.90,SW,232,0.0,0.0,65,0.00,CLR,,0.00,WeatherDisplay:10.37,2013-06-11 15:33:00,
2013-06-11 08:38:00,69.9,58.4,29.90,WSW,238,0.0,0.2,67,0.00,CLR,,0.00,WeatherDisplay:10.37,2013-06-11 15:38:00,
2013-06-11 08:43:00,70.0,58.5,29.90,South,172,0.0,0.0,67,0.00,CLR,,0.00,WeatherDisplay:10.37,2013-06-11 15:43:00,
2013-06-11 08:48:00,70.1,57.8,29.90,South,172,0.0,0.0,65,0.00,CLR,,0.00,WeatherDisplay:10.37,2013-06-11 15:48:00,
2013-06-11 08:53:00,70.2,58.3,29.90,WSW,249,1.2,1.2,66,0.00,CLR,,0.00,WeatherDisplay:10.37,2013-06-11 15:53:00,
2013-06-11 08:58:00,70.4,58.5,29.90,SSE,150,1.2,1.2,66,0.00,CLR,,0.00,WeatherDisplay:10.37,2013-06-11 15:58:00,
2013-06-11 09:03:00,70.6,59.1,29.90,South,187,0.0,0.0,67,0.00,CLR,,0.00,WeatherDisplay:10.37,2013-06-11 16:03:00,
2013-06-11 09:08:00,70.9,59.4,29.90,WSW,238,1.2,1.2,67,0.00,CLR,,0.00,WeatherDisplay:10.37,2013-06-11 16:08:00,
2013-06-11 09:13:00,71.0,59.1,29.90,SSE,158,0.0,0.0,66,0.00,CLR,,0.00,WeatherDisplay:10.37,2013-06-11 16:13:00,
2013-06-11 09:18:00,71.0,58.6,29.90,SW,215,1.2,1.2,65,0.00,CLR,,0.00,WeatherDisplay:10.37,2013-06-11 16:18:00,
2013-06-11 09:23:00,71.1,59.2,29.90,SSW,204,0.0,0.0,66,0.00,CLR,,0.00,WeatherDisplay:10.37,2013-06-11 16:23:00,
2013-06-11 09:28:00,71.4,59.4,29.90,West,281,1.2,0.0,66,0.00,CLR,,0.00,WeatherDisplay:10.37,2013-06-11 16:28:00,
2013-06-11 09:33:00,71.6,59.6,29.90,WSW,240,0.0,0.0,66,0.00,CLR,,0.00,WeatherDisplay:10.37,2013-06-11 16:33:00,
2013-06-11 09:38:00,71.8,59.4,29.90,SE,139,0.0,0.0,65,0.00,CLR,,0.00,WeatherDisplay:10.37,2013-06-11 16:38:00,
2013-06-11 09:43:00,72.0,59.6,29.90,West,271,1.2,1.2,65,0.00,CLR,,0.00,WeatherDisplay:10.37,2013-06-11 16:43:00,
2013-06-11 09:48:00,72.1,59.7,29.90,SW,226,0.0,0.0,65,0.00,CLR,,0.00,WeatherDisplay:10.37,2013-06-11 16:48:00,
2013-06-11 09:53:00,72.4,60.0,29.90,SSE,156,1.2,0.0,65,0.00,CLR,,0.00,WeatherDisplay:10.37,2013-06-11 16:53:00,
2013-06-11 09:58:00,72.9,60.0,29.90,ESE,122,1.2,1.2,64,0.00,CLR,,0.00,WeatherDisplay:10.37,2013-06-11 16:58:00,
2013-06-11 10:03:00,73.3,60.4,29.90,NNW,333,1.2,0.0,64,0.00,CLR,,0.00,WeatherDisplay:10.37,2013-06-11 17:03:00,
2013-06-11 10:08:00,73.7,59.9,29.90,West,281,2.3,2.3,62,0.00,CLR,,0.00,WeatherDisplay:10.37,2013-06-11 17:08:00,
2013-06-11 10:13:00,74.0,60.2,29.90,West,271,1.2,0.0,62,0.00,CLR,,0.00,WeatherDisplay:10.37,2013-06-11 17:13:00,
2013-06-11 10:18:00,74.3,60.4,29.90,North,360,3.0,3.0,62,0.00,CLR,,0.00,WeatherDisplay:10.37,2013-06-11 17:18:00,
2013-06-11 10:23:00,74.3,60.0,29.89,NNW,330,1.2,1.2,61,0.00,CLR,,0.00,WeatherDisplay:10.37,2013-06-11 17:23:00,
2013-06-11 10:28:00,74.2,59.9,29.89,NW,315,3.5,3.5,61,0.00,CLR,,0.00,WeatherDisplay:10.37,2013-06-11 17:28:00,
2013-06-11 10:33:00,74.5,60.6,29.89,West,262,1.2,1.2,62,0.00,CLR,,0.00,WeatherDisplay:10.37,2013-06-11 17:33:00,
2013-06-11 10:38:00,75.4,60.1,29.89,North,4,3.5,3.5,59,0.00,CLR,,0.00,WeatherDisplay:10.37,2013-06-11 17:38:00,
2013-06-11 10:43:00,75.4,59.6,29.89,NNW,328,2.3,2.3,58,0.00,CLR,,0.00,WeatherDisplay:10.37,2013-06-11 17:43:00,
2013-06-11 10:48:00,75.5,60.2,29.89,WNW,285,4.0,4.0,59,0.00,CLR,,0.00,WeatherDisplay:10.37,2013-06-11 17:48:00,
2013-06-11 10:53:00,76.0,58.7,29.89,NNW,333,2.3,2.3,55,0.00,CLR,,0.00,WeatherDisplay:10.37,2013-06-11 17:53:00,
2013-06-11 10:58:00,76.2,57.3,29.89,South,180,3.5,3.5,52,0.00,CLR,,0.00,WeatherDisplay:10.37,2013-06-11 17:58:00,
2013-06-11 11:03:00,76.7,59.3,29.90,West,267,1.2,1.2,55,0.00,CLR,,0.00,WeatherDisplay:10.37,2013-06-11 18:03:00,
2013-06-11 11:08:00,77.6,59.1,29.89,NNW,333,0.0,0.1,53,0.00,CLR,,0.00,WeatherDisplay:10.37,2013-06-11 18:08:00,
2013-06-11 11:13:00,78.2,59.1,29.90,West,280,2.3,2.3,52,0.00,CLR,,0.00,WeatherDisplay:10.37,2013-06-11 18:13:00,
2013-06-11 11:18:00,79.1,58.9,29.89,SSE,166,1.2,0.0,50,0.00,CLR,,0.00,WeatherDisplay:10.37,2013-06-11 18:18:00,
2013-06-11 11:23:00,79.7,58.8,29.89,WNW,286,2.3,2.3,49,0.00,CLR,,0.00,WeatherDisplay:10.37,2013-06-11 18:23:00,
2013-06-11 11:28:00,80.1,60.3,29.89,NNE,18,4.6,4.6,51,0.00,CLR,,0.00,WeatherDisplay:10.37,2013-06-11 18:28:00,
2013-06-11 11:33:00,79.8,58.9,29.89,NW,319,2.3,2.3,49,0.00,CLR,,0.00,WeatherDisplay:10.37,2013-06-11 18:33:00,
2013-06-11 11:38:00,80.5,59.0,29.89,West,279,2.3,2.3,48,0.00,CLR,,0.00,WeatherDisplay:10.37,2013-06-11 18:38:00,
2013-06-11 11:43:00,80.8,59.3,29.89,North,8,2.3,2.3,48,0.00,CLR,,0.00,WeatherDisplay:10.37,2013-06-11 18:43:00,
2013-06-11 11:48:00,80.7,58.6,29.89,NNW,336,3.5,3.5,47,0.00,CLR,,0.00,WeatherDisplay:10.37,2013-06-11 18:48:00,
2013-06-11 11:53:00,80.8,58.7,29.89,NW,317,3.5,3.5,47,0.00,CLR,,0.00,WeatherDisplay:10.37,2013-06-11 18:53:00,
2013-06-11 11:58:00,81.3,57.3,29.89,NNE,18,2.3,2.3,44,0.00,CLR,,0.00,WeatherDisplay:10.37,2013-06-11 18:58:00,
2013-06-11 12:03:00,81.6,56.9,29.89,North,350,3.5,3.5,43,0.00,CLR,,0.00,WeatherDisplay:10.37,2013-06-11 19:03:00,
2013-06-11 12:08:00,82.3,59.4,29.88,NNW,335,3.0,3.0,46,0.00,CLR,,0.00,WeatherDisplay:10.37,2013-06-11 19:08:00,
2013-06-11 12:13:00,82.4,59.5,29.88,North,359,2.3,2.3,46,0.00,CLR,,0.00,WeatherDisplay:10.37,2013-06-11 19:13:00,
2013-06-11 12:18:00,83.2,58.4,29.88,West,273,3.5,3.5,43,0.00,CLR,,0.00,WeatherDisplay:10.37,2013-06-11 19:18:00,
2013-06-11 12:23:00,83.5,58.0,29.88,North,350,3.5,3.5,42,0.00,CLR,,0.00,WeatherDisplay:10.37,2013-06-11 19:23:00,
2013-06-11 12:28:00,83.8,58.9,29.88,North,360,2.3,2.3,43,0.00,CLR,,0.00,WeatherDisplay:10.37,2013-06-11 19:28:00,
2013-06-11 12:33:00,84.5,58.9,29.88,NW,325,3.0,3.0,42,0.00,CLR,,0.00,WeatherDisplay:10.37,2013-06-11 19:33:00,
2013-06-11 12:38:00,84.8,57.8,29.87,NNW,343,3.5,3.5,40,0.00,CLR,,0.00,WeatherDisplay:10.37,2013-06-11 19:38:00,
2013-06-11 12:43:00,85.3,57.5,29.87,WNW,283,3.5,3.5,39,0.00,CLR,,0.00,WeatherDisplay:10.37,2013-06-11 19:43:00,
2013-06-11 12:48:00,86.1,58.2,29.87,North,5,1.2,1.2,39,0.00,CLR,,0.00,WeatherDisplay:10.37,2013-06-11 19:48:00,
2013-06-11 12:53:00,86.5,57.9,29.87,NE,44,2.3,2.3,38,0.00,CLR,,0.00,WeatherDisplay:10.37,2013-06-11 19:53:00,
2013-06-11 12:58:00,86.5,57.1,29.86,North,11,3.5,3.5,37,0.00,CLR,,0.00,WeatherDisplay:10.37,2013-06-11 19:58:00,
2013-06-11 13:03:00,86.7,57.3,29.86,NNW,328,1.2,1.2,37,0.00,CLR,,0.00,WeatherDisplay:10.37,2013-06-11 20:03:00,
2013-06-11 13:08:00,87.3,55.5,29.86,ENE,72,2.3,2.3,34,0.00,CLR,,0.00,WeatherDisplay:10.37,2013-06-11 20:08:00,
2013-06-11 13:13:00,87.7,55.9,29.86,North,6,2.3,2.3,34,0.00,CLR,,0.00,WeatherDisplay:10.37,2013-06-11 20:13:00,
2013-06-11 13:18:00,87.9,56.0,29.86,NNW,328,3.0,3.0,34,0.00,CLR,,0.00,WeatherDisplay:10.37,2013-06-11 20:18:00,
2013-06-11 13:23:00,88.2,58.6,29.85,North,359,3.5,3.5,37,0.00,CLR,,0.00,WeatherDisplay:10.37,2013-06-11 20:23:00,
2013-06-11 13:28:00,88.3,58.0,29.85,NNW,335,3.5,3.5,36,0.00,CLR,,0.00,WeatherDisplay:10.37,2013-06-11 20:28:00,
2013-06-11 13:33:00,88.1,58.6,29.85,West,277,3.5,3.5,37,0.00,CLR,,0.00,WeatherDisplay:10.37,2013-06-11 20:33:00,
2013-06-11 13:38:00,89.0,59.3,29.85,NNE,13,3.5,3.5,37,0.00,CLR,,0.00,WeatherDisplay:10.37,2013-06-11 20:38:00,
2013-06-11 13:43:00,89.1,57.9,29.84,NW,304,3.5,3.5,35,0.00,CLR,,0.00,WeatherDisplay:10.37,2013-06-11 20:43:00,
2013-06-11 13:48:00,89.6,58.3,29.84,NNW,342,2.3,2.3,35,0.00,CLR,,0.00,WeatherDisplay:10.37,2013-06-11 20:48:00,
2013-06-11 13:53:00,89.4,58.1,29.84,WNW,285,3.5,3.5,35,0.00,CLR,,0.00,WeatherDisplay:10.37,2013-06-11 20:53:00,
2013-06-11 13:58:00,89.5,59.0,29.83,SSE,159,1.2,1.2,36,0.00,CLR,,0.00,WeatherDisplay:10.37,2013-06-11 20:58:00,
2013-06-11 14:03:00,90.4,59.0,29.83,NNW,341,3.0,3.0,35,0.00,CLR,,0.00,WeatherDisplay:10.37,2013-06-11 21:03:00,
2013-06-11 14:08:00,90.5,58.3,29.83,WNW,302,1.2,1.2,34,0.00,CLR,,0.00,WeatherDisplay:10.37,2013-06-11 21:08:00,
2013-06-11 14:13:00,91.4,59.9,29.83,NNE,30,2.0,2.0,35,0.00,CLR,,0.00,WeatherDisplay:10.37,2013-06-11 21:13:00,
2013-06-11 14:18:00,91.5,58.3,29.82,ESE,106,2.3,2.3,33,0.00,CLR,,0.00,WeatherDisplay:10.37,2013-06-11 21:18:00,
2013-06-11 14:23:00,91.6,57.6,29.82,SW,214,1.2,1.2,32,0.00,CLR,,0.00,WeatherDisplay:10.37,2013-06-11 21:23:00,
2013-06-11 14:28:00,92.4,59.1,29.82,SSW,210,1.2,1.2,33,0.00,CLR,,0.00,WeatherDisplay:10.37,2013-06-11 21:28:00,
2013-06-11 14:33:00,92.6,58.4,29.82,North,8,2.3,2.3,32,0.00,CLR,,0.00,WeatherDisplay:10.37,2013-06-11 21:33:00,
2013-06-11 14:38:00,92.3,58.2,29.82,WSW,249,1.2,1.2,32,0.00,CLR,,0.00,WeatherDisplay:10.37,2013-06-11 21:38:00,
2013-06-11 14:43:00,92.9,57.8,29.81,SW,235,0.0,0.0,31,0.00,CLR,,0.00,WeatherDisplay:10.37,2013-06-11 21:43:00,
2013-06-11 14:48:00,93.7,59.4,29.81,NNE,33,3.5,3.5,32,0.00,CLR,,0.00,WeatherDisplay:10.37,2013-06-11 21:48:00,
2013-06-11 14:53:00,93.2,59.0,29.81,SSW,201,2.3,2.3,32,0.00,CLR,,0.00,WeatherDisplay:10.37,2013-06-11 21:53:00,
2013-06-11 14:58:00,93.6,60.2,29.81,West,269,4.0,4.0,33,0.00,CLR,,0.00,WeatherDisplay:10.37,2013-06-11 21:58:00,
2013-06-11 15:03:00,93.7,60.3,29.80,North,356,3.5,3.5,33,0.00,CLR,,0.00,WeatherDisplay:10.37,2013-06-11 22:03:00,
2013-06-11 15:08:00,93.6,58.4,29.80,West,260,2.3,2.3,31,0.00,CLR,,0.00,WeatherDisplay:10.37,2013-06-11 22:08:00,
2013-06-11 15:13:00,94.1,58.8,29.80,SW,220,3.5,3.5,31,0.00,CLR,,0.00,WeatherDisplay:10.37,2013-06-11 22:13:00,
2013-06-11 15:18:00,94.8,58.5,29.80,North,358,2.3,2.3,30,0.00,CLR,,0.00,WeatherDisplay:10.37,2013-06-11 22:18:00,
2013-06-11 15:23:00,95.0,58.7,29.80,WNW,287,2.3,2.3,30,0.00,CLR,,0.00,WeatherDisplay:10.37,2013-06-11 22:23:00,
2013-06-11 15:28:00,94.2,58.9,29.80,NNW,328,2.3,2.3,31,0.00,CLR,,0.00,WeatherDisplay:10.37,2013-06-11 22:28:00,
2013-06-11 15:33:00,94.2,58.9,29.80,WNW,297,2.3,2.3,31,0.00,CLR,,0.00,WeatherDisplay:10.37,2013-06-11 22:33:00,
2013-06-11 15:38:00,94.5,59.2,29.79,North,359,3.0,3.0,31,0.00,CLR,,0.00,WeatherDisplay:10.37,2013-06-11 22:38:00,
2013-06-11 15:43:00,94.4,58.2,29.79,WNW,290,2.3,2.3,30,0.00,CLR,,0.00,WeatherDisplay:10.37,2013-06-11 22:43:00,
2013-06-11 15:48:00,94.5,59.2,29.79,NNW,330,3.5,3.5,31,0.00,CLR,,0.00,WeatherDisplay:10.37,2013-06-11 22:48:00,
2013-06-11 15:53:00,94.8,59.5,29.78,SSE,167,0.0,0.0,31,0.00,CLR,,0.00,WeatherDisplay:10.37,2013-06-11 22:53:00,
2013-06-11 15:58:00,95.5,59.1,29.78,West,274,1.2,1.2,30,0.00,CLR,,0.00,WeatherDisplay:10.37,2013-06-11 22:58:00,
2013-06-11 16:03:00,95.4,59.1,29.78,ENE,77,2.3,2.3,30,0.00,CLR,,0.00,WeatherDisplay:10.37,2013-06-11 23:03:00,
2013-06-11 16:08:00,95.5,59.1,29.78,North,4,2.3,2.3,30,0.00,CLR,,0.00,WeatherDisplay:10.37,2013-06-11 23:08:00,
2013-06-11 16:13:00,96.3,59.8,29.78,West,268,3.5,3.5,30,0.00,CLR,,0.00,WeatherDisplay:10.37,2013-06-11 23:13:00,
2013-06-11 16:18:00,96.9,60.3,29.77,NE,43,3.0,3.0,30,0.00,CLR,,0.00,WeatherDisplay:10.37,2013-06-11 23:18:00,
2013-06-11 16:23:00,96.5,58.1,29.77,WSW,237,3.5,3.5,28,0.00,CLR,,0.00,WeatherDisplay:10.37,2013-06-11 23:23:00,
2013-06-11 16:28:00,96.2,58.8,29.77,SSE,165,2.3,2.3,29,0.00,CLR,,0.00,WeatherDisplay:10.37,2013-06-11 23:28:00,
2013-06-11 16:33:00,96.2,57.8,29.77,WNW,284,3.5,3.5,28,0.00,CLR,,0.00,WeatherDisplay:10.37,2013-06-11 23:33:00,
2013-06-11 16:38:00,96.4,59.0,29.77,WNW,283,3.5,3.5,29,0.00,CLR,,0.00,WeatherDisplay:10.37,2013-06-11 23:38:00,
2013-06-11 16:43:00,97.0,58.5,29.77,East,85,2.3,2.3,28,0.00,CLR,,0.00,WeatherDisplay:10.37,2013-06-11 23:43:00,
2013-06-11 16:48:00,97.4,57.8,29.77,West,260,3.5,3.5,27,0.00,CLR,,0.00,WeatherDisplay:10.37,2013-06-11 23:48:00,
2013-06-11 16:53:00,97.2,58.7,29.76,NW,314,1.2,1.2,28,0.00,CLR,,0.00,WeatherDisplay:10.37,2013-06-11 23:53:00,
2013-06-11 16:58:00,96.7,58.2,29.76,WSW,257,3.5,3.5,28,0.00,CLR,,0.00,WeatherDisplay:10.37,2013-06-11 23:58:00,
2013-06-11 17:03:00,96.5,58.1,29.76,WSW,243,3.5,3.5,28,0.00,CLR,,0.00,WeatherDisplay:10.37,2013-06-12 00:03:00,
2013-06-11 17:08:00,96.6,58.2,29.76,WSW,250,3.5,3.5,28,0.00,CLR,,0.00,WeatherDisplay:10.37,2013-06-12 00:08:00,
2013-06-11 17:13:00,96.0,57.6,29.76,NNW,341,4.6,4.6,28,0.00,CLR,,0.00,WeatherDisplay:10.37,2013-06-12 00:13:00,
2013-06-11 17:18:00,96.0,58.6,29.75,WNW,297,4.0,4.0,29,0.00,CLR,,0.00,WeatherDisplay:10.37,2013-06-12 00:18:00,
2013-06-11 17:23:00,95.9,58.5,29.75,North,8,3.5,3.5,29,0.00,CLR,,0.00,WeatherDisplay:10.37,2013-06-12 00:23:00,
2013-06-11 17:28:00,96.6,58.2,29.75,NNE,27,3.5,3.5,28,0.00,CLR,,0.00,WeatherDisplay:10.37,2013-06-12 00:28:00,
2013-06-11 17:33:00,97.3,58.7,29.75,WNW,283,2.3,2.3,28,0.00,CLR,,0.00,WeatherDisplay:10.37,2013-06-12 00:33:00,
2013-06-11 17:38:00,97.8,58.2,29.75,SE,128,3.5,3.5,27,0.00,CLR,,0.00,WeatherDisplay:10.37,2013-06-12 00:38:00,
2013-06-11 17:43:00,97.7,58.1,29.75,NW,322,3.5,3.5,27,0.00,CLR,,0.00,WeatherDisplay:10.37,2013-06-12 00:43:00,
2013-06-11 17:48:00,97.4,57.8,29.75,WSW,255,3.5,3.5,27,0.00,CLR,,0.00,WeatherDisplay:10.37,2013-06-12 00:48:00,
2013-06-11 17:53:00,96.8,58.3,29.75,West,281,2.3,2.3,28,0.00,CLR,,0.00,WeatherDisplay:10.37,2013-06-12 00:53:00,
2013-06-11 17:58:00,96.4,58.0,29.75,NNW,342,5.8,5.8,28,0.00,CLR,,0.00,WeatherDisplay:10.37,2013-06-12 00:58:00,
2013-06-11 18:03:00,96.4,59.0,29.75,SE,131,1.2,1.2,29,0.00,CLR,,0.00,WeatherDisplay:10.37,2013-06-12 01:03:00,
2013-06-11 18:08:00,96.5,58.1,29.75,West,272,2.3,2.3,28,0.00,CLR,,0.00,WeatherDisplay:10.37,2013-06-12 01:08:00,
2013-06-11 18:13:00,96.4,59.0,29.75,NNE,20,2.0,2.0,29,0.00,CLR,,0.00,WeatherDisplay:10.37,2013-06-12 01:13:00,
2013-06-11 18:18:00,95.9,59.5,29.74,SSW,204,2.3,2.3,30,0.00,CLR,,0.00,WeatherDisplay:10.37,2013-06-12 01:18:00,
2013-06-11 18:23:00,95.6,59.2,29.75,WNW,285,2.3,2.3,30,0.00,CLR,,0.00,WeatherDisplay:10.37,2013-06-12 01:23:00,
2013-06-11 18:28:00,95.6,60.1,29.75,North,1,2.3,2.3,31,0.00,CLR,,0.00,WeatherDisplay:10.37,2013-06-12 01:28:00,
2013-06-11 18:33:00,95.0,59.6,29.75,NNW,339,3.5,3.5,31,0.00,CLR,,0.00,WeatherDisplay:10.37,2013-06-12 01:33:00,
2013-06-11 18:38:00,94.2,59.8,29.75,West,262,0.0,0.0,32,0.00,CLR,,0.00,WeatherDisplay:10.37,2013-06-12 01:38:00,
2013-06-11 18:43:00,94.3,59.0,29.75,West,274,1.2,1.2,31,0.00,CLR,,0.00,WeatherDisplay:10.37,2013-06-12 01:43:00,
2013-06-11 18:48:00,94.0,57.8,29.74,North,357,2.3,2.3,30,0.00,CLR,,0.00,WeatherDisplay:10.37,2013-06-12 01:48:00,
2013-06-11 18:53:00,93.6,58.4,29.75,NNW,328,1.2,1.2,31,0.00,CLR,,0.00,WeatherDisplay:10.37,2013-06-12 01:53:00,
2013-06-11 18:58:00,93.1,58.0,29.74,NNW,345,1.2,0.0,31,0.00,CLR,,0.00,WeatherDisplay:10.37,2013-06-12 01:58:00,
2013-06-11 19:03:00,92.9,58.7,29.74,SW,225,1.2,1.2,32,0.00,CLR,,0.00,WeatherDisplay:10.37,2013-06-12 02:03:00,
2013-06-11 19:08:00,92.6,58.4,29.74,West,274,1.2,1.2,32,0.00,CLR,,0.00,WeatherDisplay:10.37,2013-06-12 02:08:00,
2013-06-11 19:13:00,92.1,58.0,29.74,North,353,1.2,0.0,32,0.00,CLR,,0.00,WeatherDisplay:10.37,2013-06-12 02:13:00,
2013-06-11 19:18:00,91.6,58.4,29.74,North,3,1.2,1.2,33,0.00,CLR,,0.00,WeatherDisplay:10.37,2013-06-12 02:18:00,
2013-06-11 19:23:00,91.1,58.8,29.74,NNW,342,1.2,1.2,34,0.00,CLR,,0.00,WeatherDisplay:10.37,2013-06-12 02:23:00,
2013-06-11 19:28:00,90.8,59.4,29.74,NNW,343,1.2,1.2,35,0.00,CLR,,0.00,WeatherDisplay:10.37,2013-06-12 02:28:00,
2013-06-11 19:33:00,90.5,59.1,29.74,NNW,345,1.2,0.0,35,0.00,CLR,,0.00,WeatherDisplay:10.37,2013-06-12 02:33:00,
2013-06-11 19:38:00,90.2,58.8,29.74,NNW,345,0.0,0.0,35,0.00,CLR,,0.00,WeatherDisplay:10.37,2013-06-12 02:38:00,
2013-06-11 19:43:00,89.9,59.4,29.74,NNW,345,0.0,0.0,36,0.00,CLR,,0.00,WeatherDisplay:10.37,2013-06-12 02:43:00,
2013-06-11 19:48:00,89.5,59.0,29.75,NNW,345,0.0,0.0,36,0.00,CLR,,0.00,WeatherDisplay:10.37,2013-06-12 02:48:00,
2013-06-11 19:53:00,89.0,59.3,29.75,NNW,346,1.2,0.0,37,0.00,CLR,,0.00,WeatherDisplay:10.37,2013-06-12 02:53:00,
2013-06-11 19:58:00,88.6,59.7,29.75,NNW,345,0.0,0.0,38,0.00,CLR,,0.00,WeatherDisplay:10.37,2013-06-12 02:58:00,
2013-06-11 20:03:00,88.1,59.3,29.75,NNW,345,0.0,0.0,38,0.00,CLR,,0.00,WeatherDisplay:10.37,2013-06-12 03:03:00,
2013-06-11 20:08:00,87.5,59.5,29.75,NNW,346,0.0,0.0,39,0.00,CLR,,0.00,WeatherDisplay:10.37,2013-06-12 03:08:00,
2013-06-11 20:13:00,87.0,59.8,29.75,NNW,345,0.0,0.0,40,0.00,CLR,,0.00,WeatherDisplay:10.37,2013-06-12 03:13:00,
2013-06-11 20:18:00,86.5,60.0,29.75,NNW,345,0.0,0.0,41,0.00,CLR,,0.00,WeatherDisplay:10.37,2013-06-12 03:18:00,
2013-06-11 20:23:00,85.9,60.8,29.75,NNW,345,0.0,0.0,43,0.00,CLR,,0.00,WeatherDisplay:10.37,2013-06-12 03:23:00,
2013-06-11 20:28:00,85.3,60.3,29.75,NNW,346,0.0,0.0,43,0.00,CLR,,0.00,WeatherDisplay:10.37,2013-06-12 03:28:00,
2013-06-11 20:33:00,84.7,59.7,29.76,NNW,345,0.0,0.0,43,0.00,CLR,,0.00,WeatherDisplay:10.37,2013-06-12 03:33:00,
2013-06-11 20:38:00,84.1,61.7,29.76,NNW,345,0.0,0.0,47,0.00,CLR,,0.00,WeatherDisplay:10.37,2013-06-12 03:38:00,
2013-06-11 20:43:00,83.5,59.9,29.76,NNW,345,0.0,0.0,45,0.00,CLR,,0.00,WeatherDisplay:10.37,2013-06-12 03:43:00,
2013-06-11 20:48:00,82.8,61.1,29.76,NNW,345,0.0,0.0,48,0.00,CLR,,0.00,WeatherDisplay:10.37,2013-06-12 03:48:00,
2013-06-11 20:53:00,82.2,61.1,29.76,NNW,345,0.0,0.0,49,0.00,CLR,,0.00,WeatherDisplay:10.37,2013-06-12 03:53:00,
2013-06-11 20:58:00,81.6,61.2,29.76,NNW,346,0.0,0.0,50,0.00,CLR,,0.00,WeatherDisplay:10.37,2013-06-12 03:58:00,
2013-06-11 21:01:00,81.3,60.9,29.76,NNW,346,0.0,0.0,50,0.00,CLR,,0.00,WeatherDisplay:10.37,2013-06-12 04:01:00,
2013-06-11 21:02:00,81.1,61.3,29.76,NNW,345,0.0,0.0,51,0.00,CLR,,0.00,WeatherDisplay:10.37,2013-06-12 04:02:00,
2013-06-11 21:07:00,80.6,61.3,29.77,NNW,346,0.0,0.0,52,0.00,CLR,,0.00,WeatherDisplay:10.37,2013-06-12 04:07:00,
2013-06-11 21:12:00,80.3,60.5,29.77,NNW,346,0.0,0.0,51,0.00,CLR,,0.00,WeatherDisplay:10.37,2013-06-12 04:12:00,
2013-06-11 21:17:00,80.2,60.4,29.77,NNW,345,0.0,0.0,51,0.00,CLR,,0.00,WeatherDisplay:10.37,2013-06-12 04:17:00,
2013-06-11 21:22:00,80.4,60.1,29.78,WSW,255,0.0,0.0,50,0.00,CLR,,0.00,WeatherDisplay:10.37,2013-06-12 04:22:00,
2013-06-11 21:27:00,80.4,60.1,29.78,WSW,255,0.0,0.0,50,0.00,CLR,,0.00,WeatherDisplay:10.37,2013-06-12 04:27:00,
2013-06-11 21:32:00,80.3,60.0,29.78,West,281,1.2,0.0,50,0.00,CLR,,0.00,WeatherDisplay:10.37,2013-06-12 04:32:00,
2013-06-11 21:37:00,80.1,60.3,29.78,NW,316,0.0,0.2,51,0.00,CLR,,0.00,WeatherDisplay:10.37,2013-06-12 04:37:00,
2013-06-11 21:42:00,79.9,60.2,29.79,NW,325,1.2,1.2,51,0.00,CLR,,0.00,WeatherDisplay:10.37,2013-06-12 04:42:00,
2013-06-11 21:47:00,79.7,60.0,29.79,NW,324,0.0,0.0,51,0.00,CLR,,0.00,WeatherDisplay:10.37,2013-06-12 04:47:00,
2013-06-11 21:52:00,79.4,60.2,29.79,NW,324,1.2,1.2,52,0.00,CLR,,0.00,WeatherDisplay:10.37,2013-06-12 04:52:00,
2013-06-11 21:57:00,79.1,60.5,29.79,NW,325,0.0,0.0,53,0.00,CLR,,0.00,WeatherDisplay:10.37,2013-06-12 04:57:00,
2013-06-11 22:02:00,78.7,60.1,29.79,NW,325,0.0,0.0,53,0.00,CLR,,0.00,WeatherDisplay:10.37,2013-06-12 05:02:00,
2013-06-11 22:07:00,78.3,59.8,29.79,NW,325,0.0,0.0,53,0.00,CLR,,0.00,WeatherDisplay:10.37,2013-06-12 05:07:00,
2013-06-11 22:12:00,78.1,60.1,29.80,NW,325,0.0,0.0,54,0.00,CLR,,0.00,WeatherDisplay:10.37,2013-06-12 05:12:00,
2013-06-11 22:17:00,77.9,59.9,29.80,NW,324,0.0,0.0,54,0.00,CLR,,0.00,WeatherDisplay:10.37,2013-06-12 05:17:00,
2013-06-11 22:22:00,77.7,59.7,29.80,NW,325,0.0,0.0,54,0.00,CLR,,0.00,WeatherDisplay:10.37,2013-06-12 05:22:00,
2013-06-11 22:27:00,77.5,59.5,29.80,NW,324,0.0,0.0,54,0.00,CLR,,0.00,WeatherDisplay:10.37,2013-06-12 05:27:00,
2013-06-11 22:32:00,77.3,59.9,29.80,NW,325,0.0,0.0,55,0.00,CLR,,0.00,WeatherDisplay:10.37,2013-06-12 05:32:00,
2013-06-11 22:37:00,77.1,59.7,29.80,NW,325,0.0,0.0,55,0.00,CLR,,0.00,WeatherDisplay:10.37,2013-06-12 05:37:00,
2013-06-11 22:42:00,77.0,59.6,29.80,NW,325,0.0,0.0,55,0.00,CLR,,0.00,WeatherDisplay:10.37,2013-06-12 05:42:00,
2013-06-11 22:47:00,76.8,59.9,29.80,NW,325,0.0,0.0,56,0.00,CLR,,0.00,WeatherDisplay:10.37,2013-06-12 05:47:00,
2013-06-11 22:52:00,76.6,59.7,29.80,NW,325,0.0,0.0,56,0.00,CLR,,0.00,WeatherDisplay:10.37,2013-06-12 05:52:00,
2013-06-11 22:57:00,76.5,60.1,29.80,NW,325,0.0,0.0,57,0.00,CLR,,0.00,WeatherDisplay:10.37,2013-06-12 05:57:00,
2013-06-11 23:02:00,76.4,60.0,29.80,NW,324,0.0,0.0,57,0.00,CLR,,0.00,WeatherDisplay:10.37,2013-06-12 06:02:00,
2013-06-11 23:07:00,76.3,59.9,29.80,NW,325,0.0,0.0,57,0.00,CLR,,0.00,WeatherDisplay:10.37,2013-06-12 06:07:00,
2013-06-11 23:12:00,76.1,59.8,29.80,NW,324,0.0,0.0,57,0.00,CLR,,0.00,WeatherDisplay:10.37,2013-06-12 06:12:00,
2013-06-11 23:17:00,76.1,59.8,29.80,NW,325,0.0,0.0,57,0.00,CLR,,0.00,WeatherDisplay:10.37,2013-06-12 06:17:00,
2013-06-11 23:22:00,76.1,59.8,29.80,NW,324,0.0,0.0,57,0.00,CLR,,0.00,WeatherDisplay:10.37,2013-06-12 06:22:00,
2013-06-11 23:27:00,76.0,60.2,29.81,NW,324,0.0,0.0,58,0.00,CLR,,0.00,WeatherDisplay:10.37,2013-06-12 06:27:00,
2013-06-11 23:32:00,76.0,60.2,29.81,NW,325,0.0,0.0,58,0.00,CLR,,0.00,WeatherDisplay:10.37,2013-06-12 06:32:00,
2013-06-11 23:37:00,75.8,60.0,29.81,NW,324,0.0,0.0,58,0.00,CLR,,0.00,WeatherDisplay:10.37,2013-06-12 06:37:00,
2013-06-11 23:42:00,75.6,60.3,29.81,NW,324,0.0,0.0,59,0.00,CLR,,0.00,WeatherDisplay:10.37,2013-06-12 06:42:00,
2013-06-11 23:47:00,75.5,60.2,29.81,NW,325,0.0,0.0,59,0.00,CLR,,0.00,WeatherDisplay:10.37,2013-06-12 06:47:00,
2013-06-11 23:52:00,75.5,60.6,29.81,NNW,339,1.2,1.2,60,0.00,CLR,,0.00,WeatherDisplay:10.37,2013-06-12 06:52:00,
2013-06-11 23:57:00,75.7,60.4,29.81,NW,322,0.0,0.0,59,0.00,CLR,,0.00,WeatherDisplay:10.37,2013-06-12 06:57:00,